EW1071 Weather Reports


Display with metric or nautical units.
time (UTC)temp
F
wind
direction
speed
MPH
gust
MPH
rain 1hr
in
rain 24hr
in
rain mn
in
humidity
%
barometer
mb
20260509083040 66 188 2.0 5.0 0.00 0.00 0.00 82 1012.4
20260509081527 64 188 2.0 5.0 0.00 0.00 0.00 86 1012.7
20260509080019 63 198 2.0 5.0 0.00 0.00 0.00 87 1012.8
20260509074529 63 197 2.0 7.0 0.00 0.00 0.00 87 1013.0
20260509073020 63 204 1.0 7.0 0.00 0.00 0.00 86 1013.1
20260509071522 64 205 2.0 7.0 0.00 0.00 0.00 84 1013.1
20260509070022 65 163 1.0 8.0 0.00 0.00 0.00 81 1013.1
20260509064517 66 88 1.0 4.0 0.00 0.00 0.00 77 1012.9
20260509063014 65 88 2.0 6.0 0.00 0.00 0.00 79 1013.0
20260509061512 64 91 0.0 3.0 0.00 0.00 0.00 83 1013.1
20260509060011 63 91 0.0 4.0 0.00 0.00 0.00 83 1013.2
20260509054511 64 91 0.0 0.0 0.00 0.00 0.00 81 1013.1
20260509053020 63 91 0.0 0.0 0.00 0.00 0.00 84 1013.1
20260509051505 60 91 0.0 11.0 0.00 0.00 0.00 87 1013.2
20260509050106 58 90 3.0 10.0 0.00 0.00 0.00 89 1013.1
20260509044606 58 95 5.0 12.0 0.00 0.00 0.00 90 1013.1
20260509043103 57 111 5.0 10.0 0.00 0.00 0.00 90 1013.1
20260509043002 57 111 5.0 10.0 0.00 0.00 0.00 90 1013.1
20260509041556 57 116 5.0 11.0 0.00 0.00 0.00 91 1012.7
20260509040055 56 94 3.0 9.0 0.00 0.00 0.00 91 1012.5
20260509034604 56 73 1.0 6.0 0.00 0.00 0.00 91 1012.4
20260509033105 56 73 1.0 3.0 0.00 0.00 0.00 90 1012.2
20260509031549 57 73 0.0 0.0 0.00 0.00 0.00 89 1012.1
20260509030049 57 73 0.0 3.0 0.00 0.00 0.00 88 1011.9
20260509024554 58 73 0.0 9.0 0.00 0.00 0.00 88 1011.5
20260509023045 58 88 3.0 9.0 0.00 0.00 0.00 88 1011.4
20260509021545 58 98 2.0 10.0 0.00 0.00 0.00 89 1011.4
20260509020047 58 115 3.0 10.0 0.00 0.00 0.00 89 1011.3
20260509014543 58 94 3.0 9.0 0.00 0.00 0.00 89 1011.4
20260509013047 58 78 2.0 9.0 0.00 0.00 0.00 89 1011.4
20260509011542 58 105 3.0 8.0 0.00 0.00 0.00 90 1011.1
20260509010040 58 107 2.0 11.0 0.00 0.00 0.00 90 1011.0
20260509004552 58 115 3.0 9.0 0.00 0.00 0.00 91 1011.1
20260509003042 58 80 3.0 10.0 0.00 0.00 0.00 91 1011.0
20260509001538 57 80 1.0 3.0 0.00 0.00 0.00 90 1011.0
20260509000043 57 80 1.0 5.0 0.00 0.00 0.00 90 1010.9
20260508234535 58 81 0.0 3.0 0.00 0.00 0.00 89 1010.8
20260508233035 58 81 1.0 6.0 0.00 0.00 0.00 89 1010.8
20260508231531 58 107 3.0 10.0 0.00 0.00 0.00 89 1010.9
20260508230028 59 114 4.0 9.0 0.00 0.00 0.00 89 1010.9
20260508224547 59 113 5.0 10.0 0.00 0.00 0.00 89 1011.2
20260508223024 59 115 5.0 12.0 0.00 0.00 0.00 89 1011.2
20260508221528 59 84 4.0 10.0 0.00 0.00 0.00 88 1011.4
20260508220029 59 81 4.0 10.0 0.00 0.00 0.00 88 1011.5
20260508214528 59 86 5.0 14.0 0.00 0.00 0.00 88 1011.4
20260508213028 59 90 2.0 10.0 0.00 0.00 0.00 88 1011.6
20260508211522 59 177 2.0 8.0 0.00 0.00 0.00 88 1011.9
20260508210017 59 80 3.0 16.0 0.00 0.00 0.00 88 1012.1
20260508204612 59 98 5.0 14.0 0.00 0.00 0.00 89 1012.3
20260508203013 59 133 5.0 11.0 0.00 0.00 0.00 89 1012.4
20260508201511 59 111 4.0 13.0 0.00 0.00 0.00 88 1012.3
20260508200027 59 115 6.0 12.0 0.00 0.00 0.00 87 1012.4
20260508194514 60 111 5.0 13.0 0.00 0.00 0.00 86 1012.5
20260508193008 60 99 4.0 13.0 0.00 0.00 0.00 85 1012.5
20260508191508 59 98 4.0 12.0 0.00 0.00 0.00 85 1012.4
20260508190010 60 115 2.0 10.0 0.00 0.00 0.00 87 1012.4
20260508184506 59 103 3.0 10.0 0.00 0.00 0.00 90 1012.5
20260508183005 57 103 0.0 2.0 0.00 0.00 0.00 91 1012.5
20260508181502 57 103 0.0 1.0 0.00 0.00 0.00 91 1012.1
20260508180103 57 103 0.0 2.0 0.00 0.00 0.00 90 1011.7
20260508174555 58 103 1.0 2.0 0.00 0.00 0.00 88 1011.4
20260508173100 59 103 1.0 3.0 0.00 0.00 0.00 86 1011.3
20260508171553 59 103 2.0 7.0 0.00 0.00 0.00 86 1011.0
20260508170048 59 103 1.0 4.0 0.00 0.00 0.00 86 1010.9
20260508164545 60 103 4.0 10.0 0.00 0.00 0.00 88 1010.7
20260508163047 60 118 5.0 14.0 0.00 0.00 0.00 88 1010.7
20260508161541 61 102 4.0 11.0 0.00 0.00 0.00 88 1010.4
20260508160041 61 82 5.0 12.0 0.00 0.00 0.00 88 1010.2
20260508154536 61 109 5.0 11.0 0.00 0.00 0.00 88 1010.0
20260508153033 62 123 0.0 2.0 0.00 0.00 0.00 87 1010.3
20260508150037 64 110 3.0 8.0 0.00 0.00 0.00 86 1009.2
20260508144539 64 111 4.0 9.0 0.00 0.00 0.00 87 1008.9
20260508143036 63 109 4.0 11.0 0.00 0.00 0.00 89 1008.5
20260508141528 63 109 3.0 8.0 0.00 0.00 0.00 91 1008.3
20260508140034 62 109 4.0 10.0 0.00 0.00 0.00 92 1008.6
20260508134528 62 110 4.0 11.0 0.00 0.00 0.00 92 1008.6
20260508133022 61 113 3.0 12.0 0.00 0.00 0.00 92 1008.6
20260508131521 61 115 3.0 8.0 0.00 0.00 0.00 92 1008.7
20260508130025 61 115 1.0 6.0 0.00 0.00 0.00 92 1008.8
20260508124518 61 115 0.0 1.0 0.00 0.00 0.00 92 1009.1
20260508123021 60 115 0.0 3.0 0.00 0.00 0.00 92 1009.3
20260508121523 61 115 0.0 3.0 0.00 0.00 0.00 92 1009.2
20260508120021 61 115 1.0 4.0 0.00 0.00 0.00 92 1009.1
20260508114528 60 115 1.0 4.0 0.00 0.00 0.00 92 1009.1
20260508113015 58 115 2.0 8.0 0.00 0.00 0.00 92 1009.3
20260508111514 57 115 4.0 10.0 0.00 0.00 0.00 87 1009.5
20260508110012 61 120 4.0 12.0 0.00 0.00 0.00 80 1010.0
20260508104512 66 108 3.0 9.0 0.00 0.00 0.00 74 1009.2
20260508103012 70 231 0.0 0.0 0.00 0.00 0.00 70 1009.3
20260508101510 71 228 0.0 0.0 0.00 0.00 0.00 74 1009.3
20260508100009 71 254 0.0 0.0 0.00 0.00 0.00 70 1009.6
20260508094505 70 253 0.0 0.0 0.00 0.00 0.00 73 1010.1
20260508093002 68 253 0.0 0.0 0.00 0.00 0.00 75 1010.4
20260508091502 69 253 0.0 0.0 0.00 0.00 0.00 75 1010.8
20260508090000 68 252 0.0 0.0 0.00 0.00 0.00 76 1011.0
20260508084559 68 80 0.0 0.0 0.00 0.00 0.00 78 1011.3